Wind_Speed
108 113 107 97 95 98 95 89 84 82 90 94 87 90 70 80 79 79 82 83 82 83 86 88 87 85 80 72 72 71 67 66 69 70 71 72 69 66 63 59 58 61 65 64
111 100 92 98 99 104 108 105 95 90 94 98 89 95 77 79 84 82 82 82 82 84 85 85 82 75 69 69 68 64 62 62 62 63 64 64 60 56 57 55 58 61 62 62
109 94 101 99 100 99 99 102 94 93 100 98 95 99 84 86 85 82 79 74 76 74 70 67 66 62 62 63 61 59 59 58 59 59 57 54 51 51 52 54 57 59 59 56
100 92 98 93 97 99 94 91 89 91 95 92 99 82 69 80 73 72 70 65 63 62 60 56 53 54 55 57 54 54 53 52 52 51 50 47 45 46 50 52 54 55 51 48
97 97 97 94 90 97 87 88 90 89 88 86 80 70 61 70 68 65 61 56 55 52 50 47 47 51 51 46 47 47 48 48 45 44 41 40 41 45 47 48 49 46 44 39
104 103 105 93 92 90 83 83 87 91 88 82 71 73 55 60 58 51 50 48 43 40 37 36 36 38 38 42 42 42 43 42 38 36 33 37 40 43 42 44 41 42 35 29
112 112 103 98 95 91 86 83 84 85 84 68 59 63 43 43 40 39 37 30 26 30 31 30 30 34 36 38 36 35 34 30 27 26 32 36 39 38 41 37 38 33 28 23
107 109 108 100 97 98 93 88 84 74 68 57 55 42 39 41 31 30 32 24 23 26 24 31 34 35 34 30 26 25 21 19 21 27 34 36 34 35 32 34 26 26 21 17
100 103 107 105 104 103 95 93 77 79 73 67 58 47 43 35 27 26 30 25 19 21 24 33 36 26 18 18 18 14 16 19 25 31 34 33 35 30 29 20 19 21 17 12
91 89 104 108 104 98 102 89 92 81 76 68 59 52 46 42 34 31 28 23 16 20 25 29 20 14 11 10 12 14 16 24 30 33 30 31 29 25 18 13 21 18 15 13
88 86 94 98 99 100 97 94 93 85 78 68 60 52 53 44 38 29 28 22 16 20 20 19 11 7 8 11 12 15 22 28 30 27 30 26 21 19 10 12 21 18 15 10
86 86 92 91 89 91 95 92 91 89 79 73 64 57 53 48 39 26 24 26 21 19 17 17 11 13 13 19 17 22 26 24 23 26 26 20 18 10 7 11 17 19 16 10
66 76 88 82 89 88 90 90 88 85 85 77 69 60 56 52 42 32 26 25 20 21 21 20 16 11 15 18 18 23 21 21 23 26 21 15 14 8 7 8 16 20 16 12
52 61 74 82 88 86 86 88 88 88 80 72 66 64 63 59 46 30 30 27 20 19 18 22 19 16 17 19 19 21 18 19 24 24 16 14 9 10 7 8 14 18 14 12
45 51 62 71 82 81 78 81 78 76 75 65 62 70 63 57 43 36 34 30 20 18 18 20 14 14 20 20 21 16 16 19 23 18 14 13 9 12 6 7 12 17 9 10
40 44 49 56 62 75 78 71 66 64 65 65 68 66 64 57 50 40 31 29 20 18 21 16 17 13 21 21 17 14 17 20 20 15 13 15 10 13 6 6 12 13 6 9
35 39 44 46 53 60 69 66 60 56 58 63 70 62 56 58 55 40 31 25 19 19 20 20 20 16 17 20 16 13 17 18 18 13 14 14 7 13 7 2 8 13 17 16
31 36 38 45 50 53 71 74 69 63 69 73 70 67 67 57 38 34 40 28 22 23 22 23 19 18 21 17 14 13 16 16 14 13 14 7 6 9 4 4 6 8 10 13
30 34 40 45 47 51 61 75 76 74 70 73 74 72 56 53 48 35 36 23 27 26 25 24 21 18 19 15 12 12 14 14 12 11 11 3 5 8 6 6 4 6 8 7
31 36 43 51 51 56 60 75 78 75 71 68 64 54 38 52 44 37 29 28 28 24 22 24 16 17 16 15 11 11 10 13 11 9 7 2 4 6 12 8 4 5 7 6
33 38 44 47 55 60 66 72 75 74 69 64 60 64 64 60 48 39 38 34 32 28 26 25 16 17 14 16 11 10 7 11 10 7 6 3 4 9 14 9 7 7 2 5
39 43 45 44 52 58 63 70 73 68 67 68 65 67 69 62 39 40 43 40 35 32 27 26 18 21 15 17 11 9 5 8 10 7 5 2 3 11 15 11 6 6 4 4
39 46 50 54 55 55 63 67 69 70 71 67 64 62 62 46 46 50 46 41 38 35 28 24 20 19 16 19 12 8 3 6 9 6 6 2 4 8 12 13 6 5 4 6
36 46 58 63 60 64 65 64 63 64 66 69 63 60 57 51 49 47 47 43 41 33 27 26 22 18 17 20 12 8 0 4 7 4 3 2 3 6 8 11 9 7 3 5
39 50 57 65 69 74 79 79 77 73 75 76 74 65 61 55 55 51 44 44 41 38 32 29 26 20 16 21 14 10 4 3 7 8 4 2 4 5 6 7 9 10 7 6
40 46 54 59 67 75 84 87 94 92 73 69 73 71 60 61 60 51 48 49 46 43 42 32 28 21 19 22 17 13 7 4 4 8 9 8 5 5 6 7 7 9 8 6
Wind_Direction
245 244 248 252 250 247 246 249 252 251 251 253 257 262 259 258 258 266 268 270 274 276 276 276 280 284 286 288 287 286 286 286 287 290 291 293 297 301 301 300 301 305 306 309
244 245 247 247 248 250 250 250 252 249 249 251 254 261 259 260 265 269 271 271 272 274 278 280 282 283 288 284 282 282 282 283 287 288 290 295 300 299 299 301 305 306 308 308
241 243 244 246 247 248 251 253 252 252 249 251 255 260 266 267 270 272 270 273 274 277 279 282 285 288 282 280 279 276 279 282 284 289 293 296 296 297 297 303 306 307 308 306
241 241 243 245 246 248 247 249 249 249 249 256 258 260 267 263 267 267 269 272 278 281 282 284 284 280 278 276 279 278 278 281 286 289 293 293 293 295 301 306 307 308 308 307
239 239 241 242 244 246 247 247 248 248 251 253 258 263 260 264 264 266 270 275 278 279 282 280 276 275 276 278 276 281 283 287 289 291 290 290 294 298 304 306 307 306 308 312
241 240 240 238 240 245 243 245 247 249 251 253 258 260 260 258 259 267 275 276 274 273 272 278 277 280 284 281 281 285 288 289 289 287 289 293 297 303 306 305 308 307 309 315
239 242 242 240 240 241 242 243 247 250 253 256 253 255 254 256 266 272 265 261 262 272 281 286 283 284 286 285 289 290 288 284 283 289 293 296 303 307 305 309 304 309 316 329
239 241 242 240 242 241 239 240 243 249 251 248 246 252 243 258 261 253 255 259 274 278 288 297 297 293 288 293 290 282 277 278 286 293 296 303 305 307 309 304 305 322 331 337
236 237 240 240 240 241 241 242 242 242 245 246 247 246 246 249 254 252 266 275 277 278 303 301 300 295 286 282 276 273 276 283 290 295 300 304 307 311 305 298 322 333 343 341
234 231 236 238 239 239 242 242 241 241 242 245 245 247 247 249 250 255 264 270 288 297 301 296 288 277 265 258 274 275 282 291 293 299 302 305 309 309 294 315 347 347 357 353
233 228 233 232 235 236 236 236 240 243 241 241 240 245 245 250 249 253 260 276 283 293 299 271 257 245 285 303 288 289 293 293 296 302 308 310 305 302 297 327 354 352 4 0
233 229 229 230 230 230 233 233 234 237 239 239 238 237 246 246 244 247 254 266 281 292 283 249 254 284 290 299 287 291 294 293 302 314 312 308 308 268 289 343 359 359 3 19
234 230 228 228 227 226 228 228 230 232 234 233 234 235 242 249 244 239 248 255 264 281 272 240 253 262 291 291 284 297 293 299 316 313 310 304 305 239 277 358 4 1 8 15
230 227 225 225 225 224 224 226 227 227 230 230 232 231 232 238 242 230 241 243 260 274 249 234 250 249 292 294 288 293 291 309 320 314 305 312 286 230 269 352 359 355 4 15
222 223 223 220 221 220 220 223 226 225 224 227 227 226 232 233 234 237 240 244 246 269 236 239 251 271 297 285 287 280 297 315 318 314 312 317 257 231 256 337 359 350 4 29
216 215 218 219 218 216 214 217 220 220 221 222 222 226 227 231 234 234 233 241 236 262 221 226 249 281 292 282 276 285 305 314 315 313 321 314 258 220 258 332 6 10 46 51
209 204 206 207 208 209 207 209 210 209 212 217 225 224 225 233 234 230 227 227 229 250 213 232 240 281 282 282 267 292 307 313 315 322 323 310 252 218 249 344 30 52 66 63
196 196 194 194 198 197 200 200 197 194 204 210 212 214 218 221 213 224 232 224 225 229 228 236 237 256 270 276 264 297 306 313 324 334 323 306 215 205 187 106 52 53 52 59
186 182 182 187 185 184 193 196 194 197 200 207 208 210 207 218 214 207 219 204 220 220 224 229 237 267 272 260 269 293 307 322 331 337 328 312 207 206 187 126 60 62 73 54
179 175 178 180 175 174 181 190 193 195 200 204 202 197 180 223 212 177 198 206 216 220 218 225 240 269 274 251 267 289 306 332 338 337 334 287 197 200 163 138 111 64 44 52
176 170 176 178 170 178 180 187 190 193 198 202 196 190 190 205 204 205 201 206 207 215 206 218 231 261 261 246 262 284 307 342 346 340 329 311 187 182 165 157 137 107 129 327
165 165 173 171 164 173 178 185 187 189 196 202 198 198 197 198 191 198 199 209 205 215 207 215 258 255 254 242 255 274 313 348 355 343 340 322 149 163 172 167 157 128 86 63
171 165 165 163 160 171 175 180 184 187 197 200 197 199 198 185 186 188 201 205 205 207 202 214 248 245 247 236 246 262 335 8 11 349 341 2 89 142 170 173 168 156 105 41
179 164 164 167 165 172 168 172 180 194 197 195 197 187 174 171 181 196 196 203 204 195 208 227 235 236 244 231 236 240 11 31 32 43 13 46 79 101 153 167 171 184 175 87
183 172 174 175 175 174 166 172 176 191 201 194 194 184 185 186 186 198 192 199 199 195 195 218 227 227 240 228 228 231 182 72 59 58 76 35 79 102 111 156 162 176 172 123
193 186 181 181 184 180 178 185 186 191 193 192 190 177 182 185 192 192 195 197 197 197 202 206 224 223 238 227 221 226 202 160 76 69 70 67 92 101 106 112 126 151 167 165
Height
10615 10620 10651 10679 10664 10681 10687 10703 10717 10726 10718 10712 10730 10724 10758 10754 10757 10758 10763 10763 10766 10767 10764 10762 10764 10763 10760 10758 10750 10748 10748 10744 10739 10734 10727 10722 10719 10713 10708 10706 10700 10692 10684 10675
10589 10620 10643 10633 10646 10656 10669 10683 10702 10703 10697 10694 10716 10704 10743 10744 10746 10747 10749 10751 10754 10751 10750 10748 10747 10749 10749 10740 10736 10737 10734 10731 10728 10721 10718 10712 10708 10704 10698 10692 10686 10680 10672 10664
10577 10612 10608 10613 10623 10637 10653 10668 10678 10686 10670 10683 10698 10695 10730 10730 10731 10734 10733 10741 10734 10737 10737 10736 10733 10734 10727 10722 10722 10721 10721 10720 10715 10711 10708 10704 10700 10695 10688 10684 10677 10669 10661 10653
10565 10583 10588 10595 10608 10617 10636 10641 10654 10660 10653 10683 10667 10703 10723 10706 10716 10715 10719 10724 10725 10724 10723 10723 10720 10716 10712 10709 10709 10708 10707 10706 10705 10702 10699 10695 10692 10685 10681 10676 10667 10660 10651 10642
10560 10562 10565 10575 10597 10589 10624 10621 10630 10636 10647 10657 10673 10689 10710 10695 10697 10703 10708 10713 10714 10713 10712 10711 10706 10701 10701 10699 10695 10694 10695 10696 10694 10692 10690 10687 10682 10678 10674 10667 10661 10653 10645 10635
10525 10535 10533 10567 10570 10582 10595 10601 10610 10619 10637 10650 10672 10671 10694 10679 10684 10694 10700 10702 10704 10704 10701 10698 10697 10692 10691 10688 10686 10686 10686 10686 10684 10682 10679 10677 10674 10670 10665 10659 10653 10646 10640 10633
10496 10500 10524 10542 10553 10569 10577 10584 10594 10610 10625 10659 10644 10664 10678 10656 10682 10688 10687 10691 10695 10692 10691 10689 10687 10684 10681 10680 10680 10679 10679 10678 10677 10675 10671 10670 10666 10662 10655 10651 10646 10638 10632 10625
10469 10485 10504 10524 10533 10543 10556 10567 10579 10601 10617 10636 10629 10667 10660 10657 10672 10677 10676 10682 10688 10682 10683 10679 10677 10675 10673 10673 10673 10673 10673 10672 10671 10668 10664 10662 10659 10655 10649 10644 10639 10633 10626 10621
10441 10471 10472 10488 10510 10519 10542 10549 10587 10584 10597 10609 10626 10645 10649 10653 10661 10667 10668 10673 10677 10676 10674 10671 10669 10667 10667 10668 10669 10669 10669 10667 10664 10662 10658 10655 10650 10648 10644 10639 10635 10629 10623 10618
10413 10446 10446 10465 10482 10508 10514 10552 10548 10572 10585 10603 10617 10629 10637 10646 10656 10660 10662 10666 10669 10668 10666 10665 10663 10663 10664 10666 10666 10666 10664 10661 10658 10655 10653 10649 10644 10641 10638 10635 10630 10624 10620 10615
10391 10419 10426 10436 10462 10482 10503 10521 10533 10555 10572 10593 10607 10622 10622 10638 10646 10651 10654 10657 10662 10663 10661 10661 10662 10662 10663 10663 10663 10661 10658 10655 10652 10649 10645 10642 10639 10636 10633 10631 10626 10620 10617 10614
10364 10393 10403 10421 10442 10460 10478 10502 10517 10533 10561 10578 10595 10608 10617 10624 10636 10645 10649 10651 10655 10656 10656 10658 10659 10660 10661 10660 10659 10657 10653 10649 10647 10644 10639 10637 10634 10632 10631 10628 10624 10618 10615 10613
10359 10377 10388 10410 10421 10440 10459 10481 10503 10522 10535 10563 10583 10598 10607 10613 10626 10639 10646 10648 10649 10651 10651 10654 10656 10657 10657 10657 10655 10652 10649 10645 10642 10638 10635 10632 10629 10629 10628 10625 10622 10618 10614 10613
10341 10355 10366 10386 10399 10419 10443 10461 10482 10503 10528 10554 10576 10580 10591 10601 10615 10629 10638 10643 10645 10647 10649 10652 10653 10653 10654 10653 10651 10648 10645 10641 10637 10633 10630 10628 10626 10627 10626 10623 10621 10618 10614 10612
10327 10339 10349 10365 10382 10409 10436 10452 10475 10499 10524 10551 10566 10562 10583 10593 10607 10619 10628 10634 10641 10644 10646 10649 10650 10650 10651 10649 10647 10644 10640 10637 10634 10629 10626 10624 10624 10624 10624 10622 10620 10617 10613 10612
10317 10329 10341 10357 10377 10399 10424 10447 10470 10499 10524 10542 10545 10560 10570 10586 10597 10611 10622 10627 10636 10640 10642 10645 10646 10646 10647 10646 10644 10641 10637 10634 10630 10626 10623 10622 10621 10622 10622 10621 10620 10616 10613 10612
10313 10322 10333 10352 10369 10389 10420 10445 10467 10494 10513 10529 10534 10557 10571 10576 10589 10607 10615 10622 10631 10635 10639 10640 10641 10643 10643 10642 10641 10637 10634 10631 10626 10622 10620 10618 10617 10619 10620 10620 10619 10618 10615 10614
10310 10320 10333 10347 10362 10385 10399 10427 10452 10471 10475 10488 10513 10534 10546 10567 10588 10603 10607 10616 10624 10629 10632 10635 10637 10639 10640 10638 10637 10634 10632 10628 10623 10619 10617 10616 10616 10618 10619 10619 10618 10618 10618 10617
10311 10323 10333 10342 10360 10381 10401 10419 10438 10447 10464 10478 10495 10513 10548 10559 10575 10593 10603 10611 10616 10621 10626 10631 10634 10636 10636 10635 10634 10633 10630 10626 10622 10618 10615 10614 10615 10616 10618 10618 10618 10618 10618 10619
10314 10323 10333 10338 10359 10378 10394 10410 10430 10448 10464 10480 10504 10530 10550 10559 10574 10588 10598 10604 10612 10618 10623 10627 10631 10633 10633 10633 10632 10631 10628 10624 10620 10618 10615 10615 10614 10615 10617 10618 10618 10617 10617 10618
10316 10326 10335 10345 10361 10372 10390 10409 10431 10451 10471 10485 10502 10520 10538 10551 10562 10580 10591 10598 10608 10613 10619 10623 10628 10630 10630 10631 10631 10629 10627 10623 10619 10617 10615 10615 10614 10615 10617 10617 10618 10619 10619 10619
10318 10331 10340 10353 10367 10379 10392 10410 10427 10452 10469 10477 10499 10511 10528 10542 10555 10573 10582 10592 10602 10609 10614 10619 10624 10626 10628 10629 10629 10628 10625 10622 10618 10616 10616 10615 10614 10615 10617 10618 10618 10619 10620 10620
10319 10331 10340 10355 10371 10382 10395 10416 10432 10446 10457 10473 10489 10506 10520 10539 10556 10564 10574 10587 10599 10607 10611 10616 10621 10623 10625 10627 10627 10626 10623 10622 10618 10616 10615 10615 10615 10615 10617 10618 10619 10620 10621 10621
10325 10337 10345 10354 10368 10381 10400 10421 10439 10449 10457 10470 10488 10502 10520 10536 10549 10556 10571 10584 10594 10603 10609 10613 10618 10620 10622 10625 10626 10625 10623 10621 10619 10617 10617 10617 10616 10616 10617 10618 10619 10621 10622 10623
10329 10340 10344 10356 10367 10380 10392 10408 10425 10437 10444 10459 10476 10494 10513 10529 10541 10552 10567 10579 10589 10597 10603 10607 10611 10616 10619 10622 10624 10624 10622 10621 10620 10618 10618 10618 10618 10618 10619 10619 10620 10621 10623 10625
10331 10339 10349 10359 10368 10380 10391 10395 10406 10420 10437 10454 10467 10484 10503 10520 10533 10547 10558 10568 10580 10588 10595 10600 10607 10612 10616 10618 10621 10623 10622 10621 10621 10620 10619 10619 10619 10620 10621 10621 10622 10622 10624 10625